This demonstration page uses our WeatherBlox Daily Observations layout. Learn more.

Left ArrowRight Arrow

Hourly Observations for January 21, 2017

Temp ( °F °C ) Dew Point ( °F °C ) Humidity (%) Winds ( mph kmh ) Pressure ( in mb ) Visibility ( mi km ) Precip ( " mm )
12:14 am 00:14 Cloudy with Mist and Fog 48 9 48 9 100 100 S 5 7 29.91 1013 4 6.43736 0 0
12:34 am 00:34 Cloudy with Mist and Fog 48 9 48 9 100 100 Calm 29.91 1013 4 6.43736 0 0
12:54 am 00:54 Cloudy with Mist and Fog 48 9 48 9 100 100 Calm 29.91 1013 5 8.0467 0 0
1:14 am 01:14 Cloudy with Mist and Fog 48 9 48 9 100 100 SSW 3 6 29.91 1013 5 8.0467 0 0
1:34 am 01:34 Cloudy with Mist and Fog 48 9 48 9 100 100 SW 3 6 29.91 1013 4 6.43736 0 0
1:54 am 01:54 Cloudy with Mist and Fog 48 9 48 9 100 100 SW 3 6 29.91 1013 4 6.43736 0 0
2:14 am 02:14 Cloudy with Mist and Fog 48 9 48 9 100 100 SW 5 7 29.91 1013 3 4.82802 0 0
2:34 am 02:34 Cloudy with Mist and Fog 48 9 48 9 100 100 SW 3 6 29.91 1013 3 4.82802 0 0
2:54 am 02:54 Cloudy with Mist and Fog 48 9 48 9 100 100 SSW 3 6 29.91 1013 3 4.82802 0 0
3:14 am 03:14 Cloudy with Mist and Fog 48 9 48 9 100 100 Calm 29.91 1013 2.5 4.02335 0 0
3:34 am 03:34 Cloudy with Mist and Fog 48 9 48 9 100 100 Calm 29.91 1013 1.75 2.816345 0 0
3:54 am 03:54 Cloudy with Mist and Fog 48 9 48 9 100 100 Calm 29.91 1013 1.25 2.011675 0 0
4:14 am 04:14 Cloudy with Mist and Fog 48 9 48 9 100 100 Calm 29.91 1013 1.25 2.011675 0 0
4:34 am 04:34 Cloudy with Mist and Fog 48 9 48 9 100 100 Calm 29.91 1013 2 3.21868 0 0
4:54 am 04:54 Cloudy with Mist and Fog 48 9 48 9 100 100 Calm 29.91 1013 1 1.60934 0 0
5:14 am 05:14 Cloudy with Mist and Fog 48 9 48 9 100 100 S 3 6 29.91 1013 1.5 2.41401 0 0
5:34 am 05:34 Cloudy with Mist and Fog 48 9 48 9 100 100 Calm 29.91 1013 1.5 2.41401 0 0
5:54 am 05:54 Cloudy with Mist and Fog 48 9 48 9 100 100 Calm 29.91 1013 2 3.21868 0 0
6:14 am 06:14 Cloudy with Mist and Fog 48 9 48 9 100 100 Calm 29.91 1013 1.5 2.41401 0 0
6:34 am 06:34 Cloudy with Mist and Fog 48 9 48 9 100 100 Calm 29.91 1013 2 3.21868 0 0
6:54 am 06:54 Cloudy with Mist and Fog 48 9 48 9 100 100 S 5 7 29.91 1013 2 3.21868 0 0
7:14 am 07:14 Cloudy with Mist and Fog 48 9 48 9 100 100 Calm 29.91 1013 2.5 4.02335 0 0
7:34 am 07:34 Cloudy with Mist and Fog 48 9 48 9 100 100 Calm 29.91 1013 2 3.21868 0 0
7:54 am 07:54 Cloudy with Mist and Fog 48 9 48 9 100 100 Calm 29.91 1013 1.25 2.011675 0 0
8:14 am 08:14 Cloudy with Mist and Fog 48 9 48 9 100 100 Calm 29.91 1013 0.5 0.80467 0 0
8:34 am 08:34 Cloudy with Fog 48 9 48 9 100 100 S 3 6 29.91 1013 0.25 0.402335 0 0
8:54 am 08:54 Cloudy with Fog 48 9 48 9 100 100 SSE 5 7 29.91 1013 0.5 0.80467 0 0
9:14 am 09:14 Cloudy with Mist and Fog 48 9 48 9 100 100 SW 5 7 29.91 1013 1.5 2.41401 0 0
9:34 am 09:34 Cloudy with Mist and Fog 48 9 48 9 100 100 SSE 6 9 29.91 1013 2.5 4.02335 0 0
9:54 am 09:54 Cloudy with Mist and Fog 48 9 48 9 100 100 Calm 29.91 1013 1.75 2.816345 0 0
10:14 am 10:14 Cloudy with Mist and Fog 48 9 48 9 100 100 Calm 29.91 1013 2 3.21868 0 0
10:34 am 10:34 Cloudy with Mist and Fog 48 9 48 9 100 100 Calm 29.91 1013 4 6.43736 0 0
10:54 am 10:54 Cloudy with Mist and Fog 48 9 48 9 100 100 S 5 7 29.91 1013 4 6.43736 0 0
11:15 am 11:15 Cloudy with Mist and Fog 48 9 48 9 100 100 S 6 9 29.91 1013 3 4.82802 0 0
11:36 am 11:36 Cloudy with Mist and Fog 48 9 48 9 100 100 S 5 7 29.91 1013 3 4.82802 0 0
12:14 pm 12:14 Cloudy with Mist and Fog 48 9 48 9 100 100 S 5 7 29.88 1012 4 6.43736 0 0
12:34 pm 12:34 Cloudy with Mist and Fog 48 9 48 9 100 100 S 3 6 29.85 1011 3 4.82802 0 0
12:54 pm 12:54 Cloudy with Mist and Fog 50 10 50 10 100 100 SSE 6 9 29.85 1011 3 4.82802 0 0
1:14 pm 13:14 Cloudy with Mist and Fog 50 10 50 10 100 100 Calm 29.83 1010 3 4.82802 0 0
1:34 pm 13:34 Cloudy with Mist and Fog 50 10 50 10 100 100 Calm 29.85 1011 5 8.0467 0 0
1:54 pm 13:54 Cloudy 50 10 50 10 100 100 SW 5 7 29.85 1011 7 11.26538 0 0
2:34 pm 14:34 Cloudy with Mist and Fog 50 10 50 10 100 100 S 3 6 29.83 1010 7 11.26538 0 0
2:54 pm 14:54 Cloudy 50 10 50 10 100 100 SSE 5 7 29.83 1010 10 16.0934 0 0
3:14 pm 15:14 Cloudy with Mist and Fog 50 10 50 10 100 100 SSE 3 6 29.83 1010 5 8.0467 0 0
3:34 pm 15:34 Cloudy with Mist and Fog 50 10 50 10 100 100 SSE 6 9 29.8 1009 5 8.0467 0 0
3:54 pm 15:54 Cloudy 50 10 50 10 100 100 SSE 5 7 29.8 1009 7 11.26538 0 0
4:14 pm 16:14 Cloudy with Mist and Fog 50 10 50 10 100 100 SSE 6 9 29.8 1009 4 6.43736 0 0
4:34 pm 16:34 Cloudy with Mist and Fog 50 10 50 10 100 100 S 7 11 29.83 1010 5 8.0467 0 0
4:54 pm 16:54 Cloudy with Mist and Fog 50 10 50 10 100 100 S 5 7 29.83 1010 5 8.0467 0 0
5:16 pm 17:16 Cloudy with Mist and Fog 50 10 50 10 100 100 S 3 6 29.83 1010 4 6.43736 0 0
5:34 pm 17:34 Cloudy with Mist and Fog 50 10 50 10 100 100 S 3 6 29.83 1010 3 4.82802 0 0
5:55 pm 17:55 Cloudy with Mist and Fog 50 10 50 10 100 100 Calm 29.83 1010 2.5 4.02335 0 0
6:14 pm 18:14 Cloudy with Mist and Fog 50 10 50 10 100 100 Calm 29.8 1009 2.5 4.02335 0 0
6:34 pm 18:34 Cloudy with Mist and Fog 50 10 50 10 100 100 S 5 7 29.8 1009 2 3.21868 0 0
6:54 pm 18:54 Cloudy with Mist and Fog 50 10 50 10 100 100 S 3 6 29.8 1009 3 4.82802 0 0
7:14 pm 19:14 Cloudy with Mist and Fog 50 10 50 10 100 100 Calm 29.8 1009 2.5 4.02335 0 0
7:34 pm 19:34 Cloudy with Mist and Fog 50 10 50 10 100 100 SSE 3 6 29.8 1009 4 6.43736 0 0
7:54 pm 19:54 Cloudy with Mist and Fog 50 10 50 10 100 100 Calm 29.8 1009 4 6.43736 0 0
8:14 pm 20:14 Cloudy with Mist and Fog 50 10 50 10 100 100 Calm 29.8 1009 2 3.21868 0 0
8:34 pm 20:34 Cloudy with Mist and Fog 50 10 50 10 100 100 Calm 29.83 1010 1.25 2.011675 0 0
8:54 pm 20:54 Cloudy with Mist and Fog 50 10 50 10 100 100 Calm 29.8 1009 0.75 1.207005 0 0
9:14 pm 21:14 Cloudy with Mist and Fog 50 10 50 10 100 100 Calm 29.8 1009 0.75 1.207005 0 0
9:34 pm 21:34 Cloudy with Fog 50 10 50 10 100 100 Calm 29.8 1009 0.5 0.80467 0 0
9:54 pm 21:54 Cloudy with Mist and Fog 50 10 50 10 100 100 Calm 29.8 1009 0.75 1.207005 0 0
10:14 pm 22:14 Cloudy with Fog 50 10 50 10 100 100 Calm 29.8 1009 0.5 0.80467 0 0
10:34 pm 22:34 Cloudy with Fog 50 10 50 10 100 100 Calm 29.8 1009 0.5 0.80467 0 0
10:54 pm 22:54 Cloudy with Fog 48 9 48 9 100 100 NE 3 6 29.8 1009 0.5 0.80467 0 0
11:14 pm 23:14 Cloudy with Fog 48 9 48 9 100 100 Calm 29.77 1008 0.5 0.80467 0 0
11:34 pm 23:34 Cloudy with Fog 48 9 48 9 100 100 Calm 29.77 1008 0.5 0.80467 0 0
11:54 pm 23:54 Cloudy with Fog 48 9 48 9 100 100 Calm 29.77 1008 0.5 0.80467 0 0

Powered by AerisWeather